O3B MPOWER B

Last updated on Tue Aug 05 2025 00:02:07 GMT+0000 (Coordinated Universal Time)

1 64867U 25153B 25215.73691733 .00000047 00000+0 -44399-3 0 9994 2 64867 9.0893 73.3062 1896449 214.2066 132.0093 7.24232134 865
UTC large
Height (km)
Speed (km/s)
/
Latitude / Longitude
Inclination (degrees)
Orbital Period (minutes)
Azimuth
Elevation
Range (km)
Doppler Factor

Next 0 passes for location: London (51.5072 / 0.1276)

Sorry there are no passes over London.